����������;��������(kVARh)
2017-05-08 00:00;0,95
2017-05-08 00:15;2
2017-05-08 00:30;3,05
2017-05-08 00:45;10,15
2017-05-08 01:00;11,95
2017-05-08 01:15;9,6
2017-05-08 01:30;5,65
2017-05-08 01:45;7,25
2017-05-08 02:00;8,3
2017-05-08 02:15;6,4
2017-05-08 02:30;6,35
2017-05-08 02:45;8,4
2017-05-08 03:00;7,75
2017-05-08 03:15;7,2
2017-05-08 03:30;6,3
2017-05-08 03:45;8,2
2017-05-08 04:00;9,2
2017-05-08 04:15;7,65
2017-05-08 04:30;8,85
2017-05-08 04:45;9,7
2017-05-08 05:00;7,4
2017-05-08 05:15;7,95
2017-05-08 05:30;13,15
2017-05-08 05:45;9,75
2017-05-08 06:00;8,25
2017-05-08 06:15;8,2
2017-05-08 06:30;9,7
2017-05-08 06:45;7,4
2017-05-08 07:00;9,55
2017-05-08 07:15;12,55
2017-05-08 07:30;13,25
2017-05-08 07:45;15,4
2017-05-08 08:00;16,7
2017-05-08 08:15;13,3
2017-05-08 08:30;15,1
2017-05-08 08:45;19,65
2017-05-08 09:00;24,3
2017-05-08 09:15;22,15
2017-05-08 09:30;29,05
2017-05-08 09:45;44,75
2017-05-08 10:00;47,5
2017-05-08 10:15;47,05
2017-05-08 10:30;47,7
2017-05-08 10:45;49,3
2017-05-08 11:00;49,35
2017-05-08 11:15;51,1
2017-05-08 11:30;51,15
2017-05-08 11:45;50,2
2017-05-08 12:00;49,15
2017-05-08 12:15;51,2
2017-05-08 12:30;52,05
2017-05-08 12:45;52,3
2017-05-08 13:00;52,95
2017-05-08 13:15;55,9
2017-05-08 13:30;55,4
2017-05-08 13:45;52,7
2017-05-08 14:00;53,55
2017-05-08 14:15;52,1
2017-05-08 14:30;52
2017-05-08 14:45;54,15
2017-05-08 15:00;55,25
2017-05-08 15:15;53,75
2017-05-08 15:30;50,6
2017-05-08 15:45;49,95
2017-05-08 16:00;48,85
2017-05-08 16:15;48,3
2017-05-08 16:30;51,35
2017-05-08 16:45;53,8
2017-05-08 17:00;52,95
2017-05-08 17:15;52,15
2017-05-08 17:30;52,1
2017-05-08 17:45;49,7
2017-05-08 18:00;47,6
2017-05-08 18:15;42,5
2017-05-08 18:30;44,1
2017-05-08 18:45;40,85
2017-05-08 19:00;34,75
2017-05-08 19:15;29,55
2017-05-08 19:30;28,6
2017-05-08 19:45;27,65
2017-05-08 20:00;30,1
2017-05-08 20:15;29,25
2017-05-08 20:30;29,9
2017-05-08 20:45;25,7
2017-05-08 21:00;25,75
2017-05-08 21:15;26,75
2017-05-08 21:30;26,25
2017-05-08 21:45;25,7
2017-05-08 22:00;18,4
2017-05-08 22:15;16,7
2017-05-08 22:30;15,85
2017-05-08 22:45;18,65
2017-05-08 23:00;15,5
2017-05-08 23:15;12,55
2017-05-08 23:30;12,95
2017-05-08 23:45;12,2
2017-05-09 00:00;13
2017-05-09 00:15;15,3
2017-05-09 00:30;10,7
2017-05-09 00:45;11,25
2017-05-09 01:00;12,25
2017-05-09 01:15;10,7
2017-05-09 01:30;13,7
2017-05-09 01:45;14,65
2017-05-09 02:00;11,95
2017-05-09 02:15;9,95
2017-05-09 02:30;10,8
2017-05-09 02:45;5,25
2017-05-09 03:00;5
2017-05-09 03:15;7,15
2017-05-09 03:30;7,95
2017-05-09 03:45;7,2
2017-05-09 04:00;8,5
2017-05-09 04:15;8
2017-05-09 04:30;7,55
2017-05-09 04:45;8,85
2017-05-09 05:00;6,9
2017-05-09 05:15;7,75
2017-05-09 05:30;10,45
2017-05-09 05:45;9,05
2017-05-09 06:00;7,9
2017-05-09 06:15;8,55
2017-05-09 06:30;12,3
2017-05-09 06:45;15,45
2017-05-09 07:00;10,8
2017-05-09 07:15;17,45
2017-05-09 07:30;15,4
2017-05-09 07:45;15,35
2017-05-09 08:00;13,5
2017-05-09 08:15;21,7
2017-05-09 08:30;24,55
2017-05-09 08:45;20,65
2017-05-09 09:00;22,45
2017-05-09 09:15;25,95
2017-05-09 09:30;25,4
2017-05-09 09:45;30,9
2017-05-09 10:00;42,3
2017-05-09 10:15;42,95
2017-05-09 10:30;42,85
2017-05-09 10:45;44,45
2017-05-09 11:00;54,75
2017-05-09 11:15;47,5
2017-05-09 11:30;48,8
2017-05-09 11:45;52,8
2017-05-09 12:00;50,95
2017-05-09 12:15;49,8
2017-05-09 12:30;54,65
2017-05-09 12:45;54,95
2017-05-09 13:00;53
2017-05-09 13:15;54,55
2017-05-09 13:30;56,45
2017-05-09 13:45;54,2
2017-05-09 14:00;55,2
2017-05-09 14:15;53,05
2017-05-09 14:30;53,75
2017-05-09 14:45;52,6
2017-05-09 15:00;53,5
2017-05-09 15:15;51,75
2017-05-09 15:30;53,2
2017-05-09 15:45;53,85
2017-05-09 16:00;46,95
2017-05-09 16:15;42,55
2017-05-09 16:30;52,9
2017-05-09 16:45;53,65
2017-05-09 17:00;42,4
2017-05-09 17:15;40,35
2017-05-09 17:30;37,55
2017-05-09 17:45;43,1
2017-05-09 18:00;36,35
2017-05-09 18:15;42,4
2017-05-09 18:30;39,6
2017-05-09 18:45;38,5
2017-05-09 19:00;39,2
2017-05-09 19:15;32,5
2017-05-09 19:30;30,95
2017-05-09 19:45;34,55
2017-05-09 20:00;29,4
2017-05-09 20:15;28,65
2017-05-09 20:30;27,85
2017-05-09 20:45;24,8
2017-05-09 21:00;25,2
2017-05-09 21:15;27,3
2017-05-09 21:30;27,5
2017-05-09 21:45;28,4
2017-05-09 22:00;27,95
2017-05-09 22:15;25,45
2017-05-09 22:30;27,5
2017-05-09 22:45;27,8
2017-05-09 23:00;25,85
2017-05-09 23:15;18,4
2017-05-09 23:30;17,15
2017-05-09 23:45;14,85
2017-05-10 00:00;13,15
2017-05-10 00:15;9,75
2017-05-10 00:30;5,3
2017-05-10 00:45;3,75
2017-05-10 01:00;4,3
2017-05-10 01:15;4,9
2017-05-10 01:30;6,3
2017-05-10 01:45;6,35
2017-05-10 02:00;6,75
2017-05-10 02:15;7,35
2017-05-10 02:30;6,4
2017-05-10 02:45;7,65
2017-05-10 03:00;7,05
2017-05-10 03:15;8,15
2017-05-10 03:30;8,5
2017-05-10 03:45;9,1
2017-05-10 04:00;7,1
2017-05-10 04:15;7,8
2017-05-10 04:30;8,95
2017-05-10 04:45;7,4
2017-05-10 05:00;8,25
2017-05-10 05:15;9,35
2017-05-10 05:30;8,1
2017-05-10 05:45;8,4
2017-05-10 06:00;9,75
2017-05-10 06:15;8
2017-05-10 06:30;16,4
2017-05-10 06:45;13,95
2017-05-10 07:00;9,05
2017-05-10 07:15;18,4
2017-05-10 07:30;18,05
2017-05-10 07:45;22
2017-05-10 08:00;16,7
2017-05-10 08:15;16,1
2017-05-10 08:30;22,5
2017-05-10 08:45;32,15
2017-05-10 09:00;32
2017-05-10 09:15;31,6
2017-05-10 09:30;29,9
2017-05-10 09:45;30,2
2017-05-10 10:00;39,2
2017-05-10 10:15;43,1
2017-05-10 10:30;43,5
2017-05-10 10:45;43,95
2017-05-10 11:00;48,95
2017-05-10 11:15;45,55
2017-05-10 11:30;51,95
2017-05-10 11:45;54,4
2017-05-10 12:00;57,65
2017-05-10 12:15;58,85
2017-05-10 12:30;58,8
2017-05-10 12:45;56,6
2017-05-10 13:00;57,05
2017-05-10 13:15;60,95
2017-05-10 13:30;57
2017-05-10 13:45;58,7
2017-05-10 14:00;58,1
2017-05-10 14:15;55,15
2017-05-10 14:30;56,5
2017-05-10 14:45;55,4
2017-05-10 15:00;54,55
2017-05-10 15:15;51,65
2017-05-10 15:30;49,45
2017-05-10 15:45;49,8
2017-05-10 16:00;40,45
2017-05-10 16:15;44,1
2017-05-10 16:30;45,65
2017-05-10 16:45;40,25
2017-05-10 17:00;37,75
2017-05-10 17:15;44,9
2017-05-10 17:30;47,25
2017-05-10 17:45;34,3
2017-05-10 18:00;37,9
2017-05-10 18:15;39,7
2017-05-10 18:30;34,15
2017-05-10 18:45;33,1
2017-05-10 19:00;32,6
2017-05-10 19:15;26,8
2017-05-10 19:30;26,9
2017-05-10 19:45;26,85
2017-05-10 20:00;21,25
2017-05-10 20:15;23,2
2017-05-10 20:30;26,7
2017-05-10 20:45;24,1
2017-05-10 21:00;24,3
2017-05-10 21:15;23,5
2017-05-10 21:30;19,8
2017-05-10 21:45;21
2017-05-10 22:00;18,25
2017-05-10 22:15;14,45
2017-05-10 22:30;12,6
2017-05-10 22:45;13,55
2017-05-10 23:00;14,65
2017-05-10 23:15;13,7
2017-05-10 23:30;12,85
2017-05-10 23:45;5,9
2017-05-11 00:00;3,75
2017-05-11 00:15;3,8
2017-05-11 00:30;3,7
2017-05-11 00:45;2,2
2017-05-11 01:00;3,2
2017-05-11 01:15;5,2
2017-05-11 01:30;4
2017-05-11 01:45;5,1
2017-05-11 02:00;4,5
2017-05-11 02:15;4,55
2017-05-11 02:30;3,85
2017-05-11 02:45;4,4
2017-05-11 03:00;5,1
2017-05-11 03:15;5,45
2017-05-11 03:30;5,4
2017-05-11 03:45;5,95
2017-05-11 04:00;5,8
2017-05-11 04:15;5,15
2017-05-11 04:30;5,85
2017-05-11 04:45;6
2017-05-11 05:00;5,8
2017-05-11 05:15;7,7
2017-05-11 05:30;8,65
2017-05-11 05:45;7,5
2017-05-11 06:00;8,4
2017-05-11 06:15;9,05
2017-05-11 06:30;15
2017-05-11 06:45;12
2017-05-11 07:00;10,2
2017-05-11 07:15;14,15
2017-05-11 07:30;17,85
2017-05-11 07:45;27,2
2017-05-11 08:00;24
2017-05-11 08:15;24,15
2017-05-11 08:30;22,05
2017-05-11 08:45;23,15
2017-05-11 09:00;31,95
2017-05-11 09:15;33
2017-05-11 09:30;33,85
2017-05-11 09:45;33,85
2017-05-11 10:00;39,35
2017-05-11 10:15;37,6
2017-05-11 10:30;43,35
2017-05-11 10:45;44,25
2017-05-11 11:00;43,65
2017-05-11 11:15;43,8
2017-05-11 11:30;42,1
2017-05-11 11:45;47,35
2017-05-11 12:00;42,55
2017-05-11 12:15;47,3
2017-05-11 12:30;52,85
2017-05-11 12:45;51,95
2017-05-11 13:00;56,45
2017-05-11 13:15;54,15
2017-05-11 13:30;52,9
2017-05-11 13:45;53,75
2017-05-11 14:00;50,3
2017-05-11 14:15;49,95
2017-05-11 14:30;46,1
2017-05-11 14:45;49,45
2017-05-11 15:00;48,2
2017-05-11 15:15;48,35
2017-05-11 15:30;46,65
2017-05-11 15:45;45,45
2017-05-11 16:00;48,35
2017-05-11 16:15;46,95
2017-05-11 16:30;49,5
2017-05-11 16:45;47,9
2017-05-11 17:00;45,8
2017-05-11 17:15;40
2017-05-11 17:30;40,7
2017-05-11 17:45;45,55
2017-05-11 18:00;38
2017-05-11 18:15;35,95
2017-05-11 18:30;31,55
2017-05-11 18:45;29,75
2017-05-11 19:00;28,1
2017-05-11 19:15;24,8
2017-05-11 19:30;22,9
2017-05-11 19:45;22,3
2017-05-11 20:00;21,3
2017-05-11 20:15;22,45
2017-05-11 20:30;26,05
2017-05-11 20:45;22,25
2017-05-11 21:00;20,95
2017-05-11 21:15;22,05
2017-05-11 21:30;21,05
2017-05-11 21:45;23,3
2017-05-11 22:00;24,85
2017-05-11 22:15;23,05
2017-05-11 22:30;22,45
2017-05-11 22:45;24,35
2017-05-11 23:00;24,3
2017-05-11 23:15;22,35
2017-05-11 23:30;16,05
2017-05-11 23:45;18
2017-05-12 00:00;21,25
2017-05-12 00:15;17,35
2017-05-12 00:30;16,5
2017-05-12 00:45;11,55
2017-05-12 01:00;8,65
2017-05-12 01:15;8,2
2017-05-12 01:30;9,55
2017-05-12 01:45;10,25
2017-05-12 02:00;10,9
2017-05-12 02:15;10,9
2017-05-12 02:30;11,15
2017-05-12 02:45;10,55
2017-05-12 03:00;11,8
2017-05-12 03:15;11,6
2017-05-12 03:30;9,85
2017-05-12 03:45;8,8
2017-05-12 04:00;10,75
2017-05-12 04:15;9,75
2017-05-12 04:30;9,85
2017-05-12 04:45;9,7
2017-05-12 05:00;10,1
2017-05-12 05:15;9,75
2017-05-12 05:30;11,55
2017-05-12 05:45;11,85
2017-05-12 06:00;12,9
2017-05-12 06:15;10,7
2017-05-12 06:30;10,85
2017-05-12 06:45;18,7
2017-05-12 07:00;12,6
2017-05-12 07:15;22,75
2017-05-12 07:30;15,05
2017-05-12 07:45;21,6
2017-05-12 08:00;20
2017-05-12 08:15;16,95
2017-05-12 08:30;15,35
2017-05-12 08:45;17,25
2017-05-12 09:00;20,4
2017-05-12 09:15;22,85
2017-05-12 09:30;26,8
2017-05-12 09:45;25,05
2017-05-12 10:00;26,4
2017-05-12 10:15;26,75
2017-05-12 10:30;26,25
2017-05-12 10:45;28,1
2017-05-12 11:00;32,05
2017-05-12 11:15;29,2
2017-05-12 11:30;30,9
2017-05-12 11:45;44,7
2017-05-12 12:00;50,75
2017-05-12 12:15;52,15
2017-05-12 12:30;50,25
2017-05-12 12:45;51,55
2017-05-12 13:00;53,45
2017-05-12 13:15;55,8
2017-05-12 13:30;55,7
2017-05-12 13:45;57,2
2017-05-12 14:00;55,55
2017-05-12 14:15;51,55
2017-05-12 14:30;50,15
2017-05-12 14:45;54,55
2017-05-12 15:00;55,3
2017-05-12 15:15;53,6
2017-05-12 15:30;51,2
2017-05-12 15:45;47,6
2017-05-12 16:00;49,55
2017-05-12 16:15;50,8
2017-05-12 16:30;48,3
2017-05-12 16:45;47,3
2017-05-12 17:00;45,2
2017-05-12 17:15;45,9
2017-05-12 17:30;39,55
2017-05-12 17:45;41,1
2017-05-12 18:00;42,55
2017-05-12 18:15;40,75
2017-05-12 18:30;40,3
2017-05-12 18:45;40,15
2017-05-12 19:00;35,45
2017-05-12 19:15;32,65
2017-05-12 19:30;30,75
2017-05-12 19:45;32,1
2017-05-12 20:00;28,05
2017-05-12 20:15;27,35
2017-05-12 20:30;28,65
2017-05-12 20:45;24,1
2017-05-12 21:00;20,8
2017-05-12 21:15;23,85
2017-05-12 21:30;26,5
2017-05-12 21:45;23,05
2017-05-12 22:00;19,7
2017-05-12 22:15;18,6
2017-05-12 22:30;18,9
2017-05-12 22:45;18,7
2017-05-12 23:00;20,8
2017-05-12 23:15;18,25
2017-05-12 23:30;15,65
2017-05-12 23:45;14,8
2017-05-13 00:00;15,45
2017-05-13 00:15;17,05
2017-05-13 00:30;14,25
2017-05-13 00:45;11,55
2017-05-13 01:00;11,35
2017-05-13 01:15;13,95
2017-05-13 01:30;5,15
2017-05-13 01:45;1,95
2017-05-13 02:00;1,85
2017-05-13 02:15;2,7
2017-05-13 02:30;2,75
2017-05-13 02:45;2,2
2017-05-13 03:00;1,95
2017-05-13 03:15;2,45
2017-05-13 03:30;1,5
2017-05-13 03:45;2,9
2017-05-13 04:00;2,35
2017-05-13 04:15;3,55
2017-05-13 04:30;2,05
2017-05-13 04:45;2,05
2017-05-13 05:00;1,6
2017-05-13 05:15;2,45
2017-05-13 05:30;3,15
2017-05-13 05:45;3,15
2017-05-13 06:00;4,45
2017-05-13 06:15;2,55
2017-05-13 06:30;2,05
2017-05-13 06:45;2,05
2017-05-13 07:00;4,3
2017-05-13 07:15;5,25
2017-05-13 07:30;7,95
2017-05-13 07:45;6,65
2017-05-13 08:00;6,4
2017-05-13 08:15;5,9
2017-05-13 08:30;3,35
2017-05-13 08:45;0,3
2017-05-13 09:00;0,4
2017-05-13 09:15;0,95
2017-05-13 09:30;0,05
2017-05-13 09:45;0
2017-05-13 10:00;0
2017-05-13 10:15;0,45
2017-05-13 10:30;0,05
2017-05-13 10:45;0,65
2017-05-13 11:00;1,5
2017-05-13 11:15;0,1
2017-05-13 11:30;0
2017-05-13 11:45;0,05
2017-05-13 12:00;0,05
2017-05-13 12:15;0
2017-05-13 12:30;0,1
2017-05-13 12:45;0
2017-05-13 13:00;0
2017-05-13 13:15;0
2017-05-13 13:30;0,2
2017-05-13 13:45;2,65
2017-05-13 14:00;5,25
2017-05-13 14:15;5,15
2017-05-13 14:30;6,5
2017-05-13 14:45;5,7
2017-05-13 15:00;5,7
2017-05-13 15:15;7,45
2017-05-13 15:30;8,45
2017-05-13 15:45;9,65
2017-05-13 16:00;11,15
2017-05-13 16:15;10,3
2017-05-13 16:30;9,55
2017-05-13 16:45;10,3
2017-05-13 17:00;10,45
2017-05-13 17:15;9,85
2017-05-13 17:30;8,75
2017-05-13 17:45;10,55
2017-05-13 18:00;10,4
2017-05-13 18:15;9,9
2017-05-13 18:30;9
2017-05-13 18:45;9,9
2017-05-13 19:00;9,5
2017-05-13 19:15;9,65
2017-05-13 19:30;8,6
2017-05-13 19:45;4,75
2017-05-13 20:00;6,2
2017-05-13 20:15;4,55
2017-05-13 20:30;4,9
2017-05-13 20:45;36,2
2017-05-13 21:00;30,6
2017-05-13 21:15;31,05
2017-05-13 21:30;30,55
2017-05-13 21:45;27,6
2017-05-13 22:00;25,55
2017-05-13 22:15;23,7
2017-05-13 22:30;22,95
2017-05-13 22:45;25,55
2017-05-13 23:00;24,8
2017-05-13 23:15;20,65
2017-05-13 23:30;21,15
2017-05-13 23:45;22,7
2017-05-14 00:00;23,15
2017-05-14 00:15;24,35
2017-05-14 00:30;25,75
2017-05-14 00:45;19,25
2017-05-14 01:00;16,8
2017-05-14 01:15;17,2
2017-05-14 01:30;16,65
2017-05-14 01:45;18,1
2017-05-14 02:00;19,1
2017-05-14 02:15;19,85
2017-05-14 02:30;21,9
2017-05-14 02:45;22,5
2017-05-14 03:00;24,4
2017-05-14 03:15;20,7
2017-05-14 03:30;20
2017-05-14 03:45;20,05
2017-05-14 04:00;19,75
2017-05-14 04:15;20,6
2017-05-14 04:30;20,3
2017-05-14 04:45;21
2017-05-14 05:00;21,45
2017-05-14 05:15;21,05
2017-05-14 05:30;21,9
2017-05-14 05:45;21,65
2017-05-14 06:00;22,2
2017-05-14 06:15;19,8
2017-05-14 06:30;18,65
2017-05-14 06:45;19,6
2017-05-14 07:00;18,2
2017-05-14 07:15;17,2
2017-05-14 07:30;19,5
2017-05-14 07:45;20,1
2017-05-14 08:00;17,5
2017-05-14 08:15;25,5
2017-05-14 08:30;22,9
2017-05-14 08:45;18,25
2017-05-14 09:00;16,35
2017-05-14 09:15;18,25
2017-05-14 09:30;18,75
2017-05-14 09:45;18,6
2017-05-14 10:00;20,1
2017-05-14 10:15;20,6
2017-05-14 10:30;17,4
2017-05-14 10:45;20,4
2017-05-14 11:00;18,2
2017-05-14 11:15;3,05
2017-05-14 11:30;17,2
2017-05-14 11:45;26,65
2017-05-14 12:00;26,55
2017-05-14 12:15;29,7
2017-05-14 12:30;28,55
2017-05-14 12:45;27,45
2017-05-14 13:00;30,1
2017-05-14 13:15;27,65
2017-05-14 13:30;29,05
2017-05-14 13:45;27,9
2017-05-14 14:00;26,55
2017-05-14 14:15;24
2017-05-14 14:30;22,4
2017-05-14 14:45;24,8
2017-05-14 15:00;24,9
2017-05-14 15:15;26,6
2017-05-14 15:30;24,65
2017-05-14 15:45;27,05
2017-05-14 16:00;22,8
2017-05-14 16:15;21,1
2017-05-14 16:30;23,05
2017-05-14 16:45;23,45
2017-05-14 17:00;24,35
2017-05-14 17:15;22,75
2017-05-14 17:30;23,05
2017-05-14 17:45;22,75
2017-05-14 18:00;20,6
2017-05-14 18:15;21,5
2017-05-14 18:30;18,15
2017-05-14 18:45;18,85
2017-05-14 19:00;17,65
2017-05-14 19:15;20,05
2017-05-14 19:30;22,15
2017-05-14 19:45;20,9
2017-05-14 20:00;21
2017-05-14 20:15;25,45
2017-05-14 20:30;23,1
2017-05-14 20:45;20,9
2017-05-14 21:00;21,5
2017-05-14 21:15;19,85
2017-05-14 21:30;20,65
2017-05-14 21:45;18,7
2017-05-14 22:00;17,3
2017-05-14 22:15;17,7
2017-05-14 22:30;16,35
2017-05-14 22:45;18,25
2017-05-14 23:00;17,05
2017-05-14 23:15;18,15
2017-05-14 23:30;18,8
2017-05-14 23:45;18,95

